Location: Unspecified
(56.5167°N, 0.0000°E)
Time: 21:52:25
(UTC+02:00)

Cosmos 1674 - Visible Passes

Search period start: 16 May 2021 00:00
Search period end: 26 May 2021 00:00
Orbit: 493 x 516 km, 82.5° (Epoch: 16 May)

Date Brightness Start Highest point End Pass type
(mag) Time Alt. Az. Time Alt. Az. Time Alt. Az.
16 May 3.2 03:29:49 14° S 03:32:55 53° E 03:36:39 10° NNE visible
17 May 3.6 03:11:34 14° SSE 03:14:31 42° E 03:18:08 10° NNE visible
17 May 4.1 04:46:56 10° WSW 04:50:10 25° WNW 04:53:24 10° N visible
18 May 4.0 02:53:18 14° SSE 02:56:07 33° E 02:59:35 10° NNE visible
18 May 3.9 04:28:13 10° SW 04:31:38 31° WNW 04:35:04 10° N visible
19 May 4.3 02:35:01 13° SE 02:37:44 27° E 02:41:00 10° NNE visible
19 May 3.6 04:09:48 11° SW 04:13:07 37° WNW 04:16:43 10° N visible
20 May 4.6 02:16:43 11° SE 02:19:23 22° E 02:22:21 10° NE visible
20 May 3.2 03:51:30 14° SW 03:54:37 47° WNW 03:58:20 10° N visible
21 May 4.8 01:58:26 10° SE 02:01:02 18° E 02:03:38 10° NE visible
21 May 2.9 03:33:11 16° SSW 03:36:08 59° WNW 03:39:55 10° N visible
22 May 5.0 01:40:35 10° ESE 01:42:41 14° E 01:44:48 10° NE visible
22 May 2.7 03:14:52 17° SSW 03:17:40 75° WNW 03:21:29 10° N visible
23 May 5.2 01:23:00 10° ESE 01:24:22 12° E 01:25:44 10° ENE visible
23 May 2.6 02:56:31 19° S 02:59:13 86° E 03:03:01 10° NNE visible
23 May 5.0 04:33:06 10° W 04:35:16 15° WNW 04:37:28 10° NNW visible
24 May 2.8 02:38:10 19° S 02:40:45 68° E 02:44:32 10° NNE visible
24 May 4.8 04:14:05 10° WSW 04:16:42 17° WNW 04:19:18 10° NNW visible
25 May 3.1 02:19:49 19° SSE 02:22:19 53° E 02:26:02 10° NNE visible
25 May 4.5 03:55:12 10° WSW 03:58:07 21° WNW 04:01:03 10° NNW visible
